sat.trackr.live / text

‹ back to catalog

UNKNOWN

NORAD 87725

UNKNOWN UNKNOWN UNKNOWN

§ Identity

Operator
Country
Launch date
Launch site
Launch vehicle
Mass (kg)
RCS (m²)

External: N2YO · Heavens-Above

§ Orbital elements

Epoch: 2026-05-22T15:08:57.655968Z

Period
94.59 min
Inclination
82.8592°
Eccentricity
0.0009751
Mean motion
15.22436578 rev/d
Perigee alt
491.8 km
Apogee alt
505.2 km
Semi-major
6,876.6 km
B*
5.0705e-3
RAAN
106.3030°
Arg perigee
140.7042°
Mean anomaly
219.4905°
Rev number
65,818

§ Raw data

UNKNOWN1 87725U          26142.63122287  .00119131  00000+0  50705-2 0  99992 87725  82.8592 106.3030 0009751 140.7042 219.4905 15.22436578658189

JSON: /api/v1/satellites/87725 · /tle

For live sub-satellite position, see the globe view (requires WebGL).

§ Visibility from observer

Set your observer location to see the next 7 days of passes ≥ 10°. The values pass through the URL so the page stays shareable.

No JS? Fill the form by hand. The geolocation button needs JavaScript.